Spirit of St Louis, MO

3:57 AM CDT on April 27, 2018 (GMT -0500)
Spirit Of Saint Louis

Weather History for KSUS - January, 2012

Change the Weather History Date:

Monday, January 9, 2012

  Actual Average Record
Temperature  
Mean Temperature 36 °F -  
Max Temperature 50 °F 37 °F 45 °F (2017)
Min Temperature 23 °F 19 °F 7 °F (2015)
Degree Days  
Heating Degree Days 28    
Moisture  
Dew Point 25 °F    
Average Humidity 76    
Maximum Humidity 96    
Minimum Humidity 40    
Precipitation  
Precipitation 0.00 in - - ()
Sea Level Pressure  
Sea Level Pressure 30.21 in    
Wind  
Wind Speed 1 mph (WSW)    
Max Wind Speed 7 mph    
Max Gust Speed -    
Visibility 8 miles    
Events      
Averages and records for this station are not official NWS values.
T = Trace of Precipitation, MM = Missing Value Source: NWS Daily Summary

Daily Weather History Graph

Daily Weather History Graph

Search for Another Location

Airport or City:

Astronomy

Jan. 09, 2012 Rise Set
Actual Time 7:20 AM CST 4:58 PM CST
Civil Twilight 6:51 AM CST 5:28 PM CST
Nautical Twilight 6:18 AM CST 6:01 PM CST
Astronomical Twilight 5:46 AM CST 6:33 PM CST
Moon 5:44 PM CST (1/9) 7:21 AM CST (1/9)
Length of Visible Light 10h 37m
Length of Day
9h 38m
Full, 100% of the Moon is Illuminated
Jan 9
Full
Jan 16
Last Quarter
Jan 23
New
Jan 30
First Quarter
Feb 7
Full

Hourly Weather History & Observations

Time (CST) Temp. Windchill Dew Point Humidity Pressure Visibility Wind Dir Wind Speed Gust Speed Precip Events Conditions
12:54 AM 27.0 °F - 25.0 °F 92% 30.27 in 6.0 mi Calm Calm - N/A   Clear
1:54 AM 26.1 °F - 25.0 °F 96% 30.29 in 6.0 mi Calm Calm - N/A   Clear
2:54 AM 26.1 °F - 24.1 °F 92% 30.29 in 5.0 mi Calm Calm - N/A   Clear
3:54 AM 25.0 °F - 23.0 °F 92% 30.25 in 5.0 mi Calm Calm - N/A   Clear
4:54 AM 23.0 °F - 21.0 °F 92% 30.24 in 5.0 mi Calm Calm - N/A   Clear
5:54 AM 23.0 °F - 21.0 °F 92% 30.26 in 5.0 mi Calm Calm - N/A   Clear
6:54 AM 23.0 °F - 21.0 °F 92% 30.26 in 5.0 mi Calm Calm - N/A   Clear
7:54 AM 23.0 °F 18.4 °F 21.0 °F 92% 30.27 in 5.0 mi WSW 3.5 mph - N/A   Partly Cloudy
8:54 AM 28.9 °F - 28.0 °F 96% 30.27 in 4.0 mi Calm Calm - N/A   Scattered Clouds
9:54 AM 33.8 °F 28.6 °F 30.2 °F 87% 30.25 in 6.0 mi WSW 5.8 mph - N/A   Mostly Cloudy
10:54 AM 39.9 °F 36.7 °F 30.0 °F 68% 30.26 in 10.0 mi WSW 4.6 mph - N/A   Mostly Cloudy
11:54 AM 44.1 °F - 30.9 °F 60% 30.22 in 10.0 mi Calm Calm - N/A   Clear
12:54 PM 48.0 °F - 30.0 °F 50% 30.19 in 10.0 mi Calm Calm - N/A   Mostly Cloudy
1:54 PM 50.0 °F - 26.6 °F 40% 30.14 in 10.0 mi WSW 4.6 mph - N/A   Scattered Clouds
2:54 PM 50.0 °F - 27.0 °F 41% 30.17 in 10.0 mi Variable 3.5 mph - N/A   Clear
3:54 PM 48.9 °F - 26.1 °F 41% 30.17 in 10.0 mi SW 6.9 mph - N/A   Partly Cloudy
4:54 PM 44.1 °F 42.5 °F 25.0 °F 47% 30.17 in 10.0 mi SW 3.5 mph - N/A   Partly Cloudy
5:54 PM 36.0 °F - 26.1 °F 67% 30.17 in 10.0 mi Calm Calm - N/A   Partly Cloudy
6:54 PM 33.1 °F - 25.0 °F 72% 30.17 in 10.0 mi Calm Calm - N/A   Clear
7:54 PM 28.9 °F - 23.0 °F 78% 30.17 in 10.0 mi Calm Calm - N/A   Clear
8:54 PM 28.0 °F - 23.0 °F 81% 30.17 in 10.0 mi Calm Calm - N/A   Clear
9:54 PM 27.0 °F - 21.9 °F 81% 30.15 in 10.0 mi Calm Calm - N/A   Clear
10:54 PM 26.1 °F - 21.9 °F 84% 30.15 in 10.0 mi Calm Calm - N/A   Clear
11:54 PM 26.1 °F - 21.9 °F 84% 30.12 in 10.0 mi Calm Calm - N/A   Clear